Longville, MN

11:00 AM CDT on March 25, 2017 (GMT -0500)
Longville Municipal

Weather History for KXVG - October, 2011

Change the Weather History Date:

Wednesday, October 26, 2011

  Actual Average (KPWC) Record (KPWC)
Temperature  
Mean Temperature 39 °F -  
Max Temperature 50 °F 46 °F 62 °F (2000)
Min Temperature 28 °F 31 °F 21 °F (2003)
Degree Days  
Heating Degree Days 26    
Moisture  
Dew Point 32 °F    
Average Humidity 80    
Maximum Humidity 100    
Minimum Humidity 43    
Precipitation  
Precipitation 0.00 in - - ()
Sea Level Pressure  
Sea Level Pressure 30.05 in    
Wind  
Wind Speed 1 mph (WNW)    
Max Wind Speed 9 mph    
Max Gust Speed -    
Visibility 9 miles    
Events Rain    
Averages and records for this station are not official NWS values.
T = Trace of Precipitation, MM = Missing Value Source: NWS Daily Summary

Daily Weather History Graph

Daily Weather History Graph

Search for Another Location

Airport or City:

Trip Planner

Search our weather history database for the weather conditions in past years. The results will help you decide how hot, cold, wet, or windy it might be!

Date:

Astronomy

Oct. 26, 2011 Rise Set
Actual Time 7:50 AM CDT 6:10 PM CDT
Civil Twilight 7:18 AM CDT 6:41 PM CDT
Nautical Twilight 6:43 AM CDT 7:17 PM CDT
Astronomical Twilight 6:08 AM CDT 7:52 PM CDT
Moon 7:42 AM CDT (10/26) 5:48 PM CDT (10/26)
Length of Visible Light 11h 22m
Length of Day
10h 20m
Waning Crescent, 0% of the Moon is Illuminated
Oct 26
Waning Crescent
Oct 26
New
Nov 2
First Quarter
Nov 10
Full
Nov 18
Last Quarter

Hourly Weather History & Observations

Time (CDT) Temp. Windchill Dew Point Humidity Pressure Visibility Wind Dir Wind Speed Gust Speed Precip Events Conditions
12:17 AM 33.8 °F - 32.0 °F 93% 30.05 in 10.0 mi Calm Calm - N/A   Overcast
12:37 AM 33.8 °F - 32.0 °F 93% 30.05 in 10.0 mi Calm Calm - N/A   Overcast
12:57 AM 35.6 °F 32.8 °F 33.8 °F 93% 30.05 in 10.0 mi West 3.5 mph - N/A   Overcast
1:17 AM 35.6 °F - 33.8 °F 93% 30.05 in 10.0 mi Calm Calm - N/A   Overcast
1:37 AM 33.8 °F - 33.8 °F 100% 30.05 in 10.0 mi Calm Calm - N/A   Mostly Cloudy
1:56 AM 33.8 °F - 33.8 °F 100% 30.05 in 10.0 mi Calm Calm - N/A   Overcast
2:17 AM 33.8 °F - 33.8 °F 100% 30.05 in 10.0 mi Calm Calm - N/A   Overcast
2:36 AM 33.8 °F - 33.8 °F 100% 30.05 in 10.0 mi Calm Calm - N/A   Mostly Cloudy
2:57 AM 30.2 °F - 30.2 °F 100% 30.06 in 10.0 mi Calm Calm - N/A   Scattered Clouds
3:18 AM 28.4 °F - 28.4 °F 100% 30.05 in 10.0 mi Calm Calm - N/A   Scattered Clouds
3:36 AM 28.4 °F - 28.4 °F 100% 30.05 in 10.0 mi Calm Calm - N/A   Mostly Cloudy
3:57 AM 28.4 °F - 28.4 °F 100% 30.05 in 10.0 mi Calm Calm - N/A   Overcast
4:16 AM 28.4 °F - 28.4 °F 100% 30.05 in 10.0 mi Calm Calm - N/A   Overcast
4:37 AM 30.2 °F - 30.2 °F 100% 30.05 in 10.0 mi Calm Calm - N/A   Overcast
4:57 AM 30.2 °F - 30.2 °F 100% 30.05 in 10.0 mi Calm Calm - N/A   Overcast
5:17 AM 30.2 °F - 30.2 °F 100% 30.06 in 10.0 mi Calm Calm - N/A   Overcast
5:36 AM 30.2 °F - 30.2 °F 100% 30.06 in 10.0 mi Calm Calm - N/A   Overcast
5:57 AM 30.2 °F - 30.2 °F 100% 30.06 in 10.0 mi Calm Calm - N/A   Overcast
6:17 AM 30.2 °F - 30.2 °F 100% 30.06 in 10.0 mi Calm Calm - N/A   Overcast
6:37 AM 30.2 °F - 30.2 °F 100% 30.06 in 7.0 mi Calm Calm - N/A   Overcast
6:56 AM 30.2 °F - 30.2 °F 100% 30.07 in 7.0 mi Calm Calm - N/A   Overcast
7:17 AM 30.2 °F - 28.4 °F 93% 30.07 in 1.8 mi Calm Calm - N/A   Overcast
7:37 AM 30.2 °F - 30.2 °F 100% 30.07 in 2.0 mi Calm Calm - N/A   Overcast
7:56 AM 30.2 °F - 30.2 °F 100% 30.07 in 1.5 mi Calm Calm - N/A   Overcast
8:17 AM 30.2 °F - 28.4 °F 93% 30.07 in 2.0 mi Calm Calm - N/A   Overcast
8:37 AM 32.0 °F - 32.0 °F 100% 30.07 in 7.0 mi Calm Calm - N/A   Overcast
8:57 AM 33.8 °F - 33.8 °F 100% 30.08 in 10.0 mi Calm Calm - N/A   Scattered Clouds
9:16 AM 35.6 °F - 33.8 °F 93% 30.08 in 10.0 mi Calm Calm - N/A   Scattered Clouds
9:36 AM 37.4 °F - 37.4 °F 100% 30.07 in 10.0 mi Calm Calm - N/A   Mostly Cloudy
9:56 AM 39.2 °F - 35.6 °F 87% 30.07 in 10.0 mi Calm Calm - N/A   Mostly Cloudy
10:17 AM 41.0 °F - 35.6 °F 81% 30.08 in 10.0 mi Calm Calm - N/A   Mostly Cloudy
10:57 AM 44.6 °F - 33.8 °F 66% 30.09 in 10.0 mi Calm Calm - N/A   Mostly Cloudy
11:17 AM 46.4 °F - 33.8 °F 62% 30.09 in 10.0 mi Calm Calm - N/A   Mostly Cloudy
11:37 AM 48.2 °F - 32.0 °F 54% 30.09 in 10.0 mi NNE 4.6 mph - N/A   Scattered Clouds
11:57 AM 46.4 °F 42.4 °F 32.0 °F 57% 30.09 in 10.0 mi WNW 8.1 mph - N/A   Scattered Clouds
12:17 PM 46.4 °F 42.9 °F 33.8 °F 62% 30.09 in 10.0 mi NW 6.9 mph - N/A   Scattered Clouds
12:37 PM 46.4 °F 45.2 °F 33.8 °F 62% 30.09 in 10.0 mi NW 3.5 mph - N/A   Scattered Clouds
12:56 PM 48.2 °F - 33.8 °F 58% 30.08 in 10.0 mi WSW 6.9 mph - N/A   Mostly Cloudy
1:16 PM 48.2 °F - 35.6 °F 62% 30.08 in 10.0 mi WNW 8.1 mph - N/A   Mostly Cloudy
1:36 PM 48.2 °F - 33.8 °F 58% 30.07 in 10.0 mi WNW 5.8 mph - N/A   Scattered Clouds
1:57 PM 48.2 °F - 32.0 °F 54% 30.07 in 10.0 mi WNW 9.2 mph - N/A   Clear
2:16 PM 48.2 °F - 32.0 °F 54% 30.06 in 10.0 mi WNW 8.1 mph - N/A   Clear
2:37 PM 48.2 °F - 32.0 °F 54% 30.05 in 10.0 mi WNW 6.9 mph - N/A   Clear
2:56 PM 48.2 °F - 30.2 °F 50% 30.04 in 10.0 mi NNW 5.8 mph - N/A   Clear
3:17 PM 48.2 °F - 28.4 °F 46% 30.03 in 10.0 mi WNW 8.1 mph - N/A   Clear
3:37 PM 48.2 °F - 28.4 °F 46% 30.03 in 10.0 mi North 3.5 mph - N/A   Scattered Clouds
3:57 PM 48.2 °F - 28.4 °F 46% 30.03 in 10.0 mi NW 3.5 mph - N/A   Mostly Cloudy
4:18 PM 50.0 °F - 28.4 °F 43% 30.02 in 10.0 mi Calm Calm - N/A   Scattered Clouds
4:37 PM 46.4 °F 45.2 °F 26.6 °F 46% 30.02 in 10.0 mi West 3.5 mph - N/A   Clear
5:17 PM 44.6 °F - 28.4 °F 53% 30.02 in 10.0 mi Calm Calm - N/A   Clear
5:37 PM 44.6 °F - 30.2 °F 57% 30.02 in 10.0 mi Calm Calm - N/A   Scattered Clouds
5:57 PM 44.6 °F - 30.2 °F 57% 30.02 in 10.0 mi Calm Calm - N/A   Scattered Clouds
6:17 PM 42.8 °F - 30.2 °F 61% 30.02 in 10.0 mi Calm Calm - N/A   Mostly Cloudy
6:37 PM 39.2 °F - 30.2 °F 70% 30.02 in 10.0 mi Calm Calm - N/A   Overcast
7:38 PM 39.2 °F - 33.8 °F 81% 30.02 in 10.0 mi Calm Calm - N/A   Overcast
7:57 PM 39.2 °F - 33.8 °F 81% 30.03 in 10.0 mi Calm Calm - N/A   Overcast
8:17 PM 39.2 °F - 33.8 °F 81% 30.03 in 10.0 mi Calm Calm - N/A   Overcast
8:37 PM 39.2 °F - 33.8 °F 81% 30.03 in 10.0 mi Calm Calm - N/A   Overcast
8:57 PM 39.2 °F - 35.6 °F 87% 30.03 in 10.0 mi Calm Calm - N/A Rain Light Rain
9:18 PM 37.4 °F - 35.6 °F 93% 30.02 in 10.0 mi Calm Calm - N/A   Overcast
9:37 PM 35.6 °F - 33.8 °F 93% 30.02 in 10.0 mi Calm Calm - N/A   Light Drizzle
9:58 PM 35.6 °F - 33.8 °F 93% 30.02 in 10.0 mi Calm Calm - N/A   Overcast
10:17 PM 35.6 °F - 35.6 °F 100% 30.03 in 10.0 mi Calm Calm - N/A   Overcast
10:37 PM 35.6 °F - 35.6 °F 100% 30.03 in 10.0 mi Calm Calm - N/A   Light Drizzle
11:17 PM 33.8 °F - 33.8 °F 100% 30.02 in 10.0 mi Calm Calm - N/A   Mostly Cloudy
11:37 PM 32.0 °F - 32.0 °F 100% 30.02 in 10.0 mi Calm Calm - N/A   Scattered Clouds